QPF
0.04 0.02 0.02 0.00 0.00 0.00 0.00 0.00 0.00 0.00 0.00 0.00 0.00 0.00 0.00 0.00 0.00 0.00 0.00 0.00 0.00 0.00 0.00 0.00 0.01 0.01 0.01 0.01 0.01 0.01 0.02 0.02 0.03 0.03 0.03 0.03 0.03 0.03 0.02 0.03 0.03 0.02 0.04
0.03 0.02 0.02 0.00 0.00 0.00 0.00 0.00 0.00 0.00 0.00 0.00 0.00 0.00 0.00 0.00 0.00 0.00 0.00 0.00 0.01 0.01 0.01 0.01 0.01 0.01 0.01 0.01 0.01 0.01 0.01 0.01 0.01 0.02 0.02 0.02 0.03 0.04 0.03 0.03 0.03 0.02 0.02
0.02 0.02 0.03 0.01 0.01 0.00 0.00 0.00 0.00 0.00 0.00 0.00 0.00 0.00 0.00 0.00 0.00 0.01 0.01 0.01 0.01 0.01 0.01 0.01 0.01 0.01 0.01 0.01 0.01 0.01 0.01 0.01 0.01 0.02 0.02 0.01 0.02 0.05 0.05 0.04 0.04 0.03 0.02
0.02 0.03 0.03 0.02 0.01 0.01 0.01 0.00 0.00 0.00 0.00 0.01 0.00 0.00 0.00 0.00 0.00 0.01 0.01 0.01 0.01 0.01 0.01 0.01 0.01 0.00 0.00 0.00 0.01 0.01 0.01 0.00 0.01 0.01 0.01 0.01 0.01 0.05 0.07 0.05 0.04 0.03 0.03
0.03 0.03 0.03 0.02 0.01 0.02 0.02 0.02 0.00 0.00 0.01 0.01 0.00 0.00 0.00 0.00 0.00 0.01 0.01 0.02 0.02 0.02 0.01 0.01 0.01 0.01 0.01 0.01 0.01 0.01 0.01 0.01 0.01 0.01 0.00 0.01 0.02 0.05 0.06 0.05 0.04 0.03 0.03
0.03 0.03 0.03 0.02 0.01 0.01 0.02 0.02 0.01 0.01 0.01 0.01 0.00 0.00 0.00 0.00 0.00 0.00 0.01 0.01 0.02 0.02 0.02 0.02 0.02 0.01 0.01 0.01 0.01 0.01 0.01 0.01 0.01 0.01 0.01 0.01 0.01 0.05 0.06 0.06 0.06 0.05 0.05
0.02 0.02 0.02 0.02 0.02 0.01 0.01 0.01 0.01 0.00 0.00 0.00 0.01 0.00 0.00 0.01 0.01 0.00 0.00 0.00 0.01 0.01 0.02 0.02 0.02 0.01 0.01 0.01 0.01 0.01 0.01 0.01 0.01 0.01 0.01 0.01 0.02 0.04 0.06 0.08 0.08 0.06 0.05
0.01 0.01 0.01 0.01 0.01 0.01 0.01 0.01 0.01 0.01 0.01 0.01 0.01 0.01 0.01 0.01 0.01 0.01 0.01 0.01 0.00 0.01 0.01 0.02 0.02 0.01 0.01 0.01 0.01 0.01 0.01 0.01 0.01 0.01 0.01 0.03 0.05 0.06 0.07 0.07 0.07 0.06 0.06
0.01 0.01 0.01 0.02 0.02 0.02 0.01 0.01 0.01 0.01 0.01 0.01 0.01 0.01 0.02 0.01 0.01 0.01 0.02 0.01 0.01 0.01 0.01 0.01 0.01 0.01 0.01 0.01 0.01 0.01 0.01 0.01 0.02 0.01 0.01 0.02 0.03 0.07 0.09 0.07 0.06 0.06 0.07
0.02 0.02 0.02 0.01 0.01 0.01 0.01 0.00 0.00 0.01 0.02 0.02 0.02 0.02 0.02 0.02 0.02 0.03 0.03 0.03 0.02 0.01 0.01 0.01 0.02 0.01 0.01 0.01 0.01 0.02 0.02 0.02 0.02 0.01 0.02 0.02 0.04 0.07 0.08 0.08 0.07 0.06 0.05
0.02 0.04 0.03 0.01 0.01 0.01 0.01 0.00 0.00 0.01 0.02 0.02 0.02 0.02 0.03 0.02 0.02 0.03 0.03 0.03 0.03 0.02 0.02 0.02 0.02 0.02 0.02 0.02 0.01 0.02 0.03 0.03 0.03 0.03 0.03 0.03 0.05 0.06 0.07 0.06 0.07 0.07 0.06
0.04 0.04 0.02 0.02 0.01 0.01 0.01 0.01 0.01 0.01 0.01 0.01 0.01 0.03 0.04 0.04 0.04 0.04 0.04 0.05 0.05 0.05 0.04 0.04 0.05 0.05 0.04 0.03 0.02 0.02 0.03 0.03 0.03 0.03 0.03 0.04 0.06 0.07 0.07 0.06 0.05 0.06 0.06
0.06 0.04 0.03 0.02 0.02 0.02 0.02 0.03 0.03 0.02 0.01 0.02 0.03 0.04 0.04 0.04 0.04 0.04 0.04 0.05 0.06 0.06 0.05 0.04 0.05 0.04 0.04 0.03 0.02 0.02 0.02 0.04 0.03 0.02 0.03 0.04 0.05 0.06 0.06 0.05 0.04 0.05 0.06
0.05 0.05 0.05 0.05 0.06 0.05 0.05 0.07 0.06 0.03 0.04 0.05 0.06 0.03 0.04 0.05 0.05 0.05 0.04 0.04 0.04 0.04 0.04 0.04 0.04 0.04 0.05 0.05 0.05 0.04 0.04 0.04 0.02 0.02 0.03 0.04 0.04 0.06 0.06 0.05 0.04 0.04 0.04
0.06 0.07 0.08 0.12 0.15 0.14 0.13 0.09 0.08 0.08 0.08 0.09 0.07 0.05 0.06 0.06 0.06 0.04 0.03 0.02 0.02 0.03 0.04 0.05 0.05 0.05 0.06 0.06 0.05 0.04 0.05 0.06 0.04 0.03 0.04 0.04 0.04 0.06 0.07 0.07 0.06 0.06 0.05
0.12 0.12 0.13 0.16 0.19 0.18 0.14 0.09 0.09 0.09 0.12 0.13 0.08 0.07 0.06 0.06 0.06 0.05 0.03 0.02 0.02 0.02 0.02 0.03 0.04 0.04 0.06 0.07 0.06 0.06 0.08 0.08 0.07 0.05 0.05 0.05 0.05 0.06 0.07 0.08 0.08 0.07 0.06
0.13 0.15 0.16 0.15 0.17 0.14 0.10 0.08 0.09 0.07 0.08 0.12 0.11 0.10 0.08 0.07 0.07 0.05 0.04 0.03 0.03 0.03 0.03 0.02 0.02 0.03 0.03 0.04 0.05 0.05 0.06 0.07 0.08 0.09 0.10 0.11 0.10 0.10 0.11 0.11 0.11 0.10 0.09
0.14 0.13 0.12 0.11 0.11 0.09 0.07 0.07 0.09 0.12 0.14 0.17 0.17 0.15 0.12 0.09 0.09 0.07 0.06 0.05 0.04 0.04 0.04 0.03 0.03 0.03 0.03 0.03 0.04 0.04 0.04 0.05 0.05 0.07 0.09 0.12 0.16 0.18 0.17 0.15 0.12 0.10 0.08
0.18 0.14 0.10 0.09 0.08 0.07 0.06 0.07 0.08 0.14 0.14 0.12 0.11 0.10 0.08 0.09 0.10 0.09 0.09 0.07 0.06 0.04 0.04 0.03 0.03 0.04 0.04 0.04 0.04 0.04 0.04 0.03 0.04 0.06 0.09 0.11 0.13 0.16 0.17 0.15 0.12 0.09 0.07
0.15 0.21 0.17 0.10 0.07 0.08 0.06 0.06 0.09 0.10 0.08 0.06 0.07 0.07 0.07 0.07 0.08 0.08 0.08 0.07 0.06 0.06 0.04 0.05 0.04 0.05 0.05 0.06 0.06 0.06 0.05 0.04 0.05 0.09 0.11 0.12 0.11 0.11 0.12 0.12 0.10 0.07 0.07
0.10 0.19 0.20 0.10 0.06 0.04 0.04 0.06 0.08 0.07 0.06 0.05 0.07 0.06 0.07 0.07 0.07 0.07 0.06 0.06 0.05 0.05 0.05 0.06 0.06 0.07 0.07 0.08 0.09 0.08 0.08 0.07 0.06 0.06 0.06 0.08 0.08 0.08 0.09 0.10 0.10 0.07 0.05
0.05 0.08 0.10 0.08 0.05 0.04 0.05 0.06 0.06 0.07 0.07 0.06 0.06 0.06 0.06 0.06 0.07 0.07 0.07 0.07 0.06 0.06 0.06 0.06 0.06 0.07 0.06 0.07 0.07 0.06 0.04 0.03 0.03 0.03 0.03 0.03 0.04 0.05 0.06 0.06 0.06 0.05 0.03
0.03 0.04 0.04 0.04 0.04 0.04 0.03 0.04 0.03 0.04 0.04 0.04 0.03 0.03 0.04 0.06 0.07 0.08 0.08 0.09 0.09 0.08 0.07 0.08 0.09 0.08 0.07 0.06 0.06 0.06 0.04 0.02 0.02 0.02 0.02 0.02 0.02 0.03 0.03 0.04 0.05 0.04 0.03
0.04 0.05 0.04 0.03 0.04 0.04 0.03 0.02 0.02 0.02 0.03 0.03 0.02 0.01 0.02 0.04 0.07 0.08 0.09 0.10 0.10 0.10 0.09 0.07 0.07 0.07 0.07 0.06 0.05 0.04 0.04 0.03 0.03 0.02 0.02 0.03 0.03 0.03 0.03 0.03 0.04 0.04 0.03
0.04 0.04 0.03 0.03 0.03 0.03 0.02 0.02 0.01 0.01 0.02 0.04 0.03 0.02 0.02 0.04 0.05 0.07 0.09 0.11 0.11 0.12 0.15 0.14 0.11 0.08 0.06 0.05 0.05 0.04 0.03 0.03 0.03 0.03 0.02 0.03 0.03 0.03 0.04 0.05 0.04 0.04 0.04
0.04 0.03 0.02 0.02 0.03 0.02 0.02 0.02 0.02 0.01 0.02 0.04 0.05 0.04 0.02 0.02 0.03 0.04 0.05 0.07 0.09 0.09 0.09 0.13 0.16 0.14 0.09 0.06 0.05 0.03 0.02 0.02 0.02 0.03 0.03 0.02 0.02 0.03 0.04 0.04 0.04 0.04 0.05
MSLP
1008.98 1008.57 1008.35 1008.36 1008.60 1009.00 1009.47 1009.91 1010.24 1010.45 1010.55 1010.59 1010.65 1010.77 1011.01 1011.34 1011.74 1012.16 1012.56 1012.88 1013.13 1013.30 1013.43 1013.53 1013.65 1013.77 1013.90 1014.03 1014.13 1014.21 1014.27 1014.29 1014.32 1014.34 1014.38 1014.44 1014.50 1014.55 1014.60 1014.63 1014.65 1014.67 1014.69
1008.91 1008.56 1008.37 1008.40 1008.64 1009.03 1009.49 1009.93 1010.29 1010.54 1010.70 1010.81 1010.94 1011.12 1011.39 1011.72 1012.11 1012.50 1012.84 1013.13 1013.34 1013.49 1013.60 1013.70 1013.80 1013.91 1014.03 1014.13 1014.21 1014.26 1014.29 1014.30 1014.31 1014.33 1014.36 1014.40 1014.44 1014.48 1014.49 1014.50 1014.49 1014.50 1014.52
1008.66 1008.38 1008.24 1008.31 1008.58 1008.99 1009.46 1009.93 1010.32 1010.62 1010.84 1011.02 1011.20 1011.42 1011.69 1012.02 1012.37 1012.71 1013.01 1013.24 1013.42 1013.56 1013.66 1013.77 1013.87 1013.98 1014.08 1014.17 1014.22 1014.25 1014.25 1014.24 1014.24 1014.24 1014.26 1014.29 1014.31 1014.32 1014.31 1014.30 1014.28 1014.29 1014.32
1008.33 1008.12 1008.06 1008.20 1008.51 1008.97 1009.47 1009.97 1010.39 1010.73 1010.99 1011.20 1011.41 1011.65 1011.92 1012.22 1012.53 1012.82 1013.06 1013.25 1013.40 1013.52 1013.63 1013.75 1013.87 1013.99 1014.09 1014.16 1014.20 1014.20 1014.17 1014.14 1014.11 1014.09 1014.09 1014.09 1014.09 1014.08 1014.05 1014.02 1014.00 1014.01 1014.07
1008.03 1007.91 1007.94 1008.16 1008.55 1009.04 1009.58 1010.09 1010.52 1010.87 1011.14 1011.37 1011.59 1011.83 1012.09 1012.36 1012.62 1012.85 1013.04 1013.20 1013.32 1013.43 1013.55 1013.68 1013.82 1013.96 1014.07 1014.14 1014.16 1014.14 1014.08 1014.01 1013.95 1013.90 1013.87 1013.84 1013.81 1013.77 1013.72 1013.68 1013.66 1013.69 1013.76
1007.86 1007.83 1007.96 1008.27 1008.72 1009.26 1009.81 1010.30 1010.72 1011.04 1011.29 1011.51 1011.73 1011.96 1012.20 1012.45 1012.67 1012.87 1013.02 1013.13 1013.23 1013.34 1013.46 1013.61 1013.77 1013.93 1014.05 1014.12 1014.13 1014.08 1013.99 1013.89 1013.78 1013.69 1013.62 1013.55 1013.49 1013.43 1013.36 1013.31 1013.29 1013.33 1013.42
1007.86 1007.93 1008.16 1008.55 1009.06 1009.61 1010.13 1010.59 1010.94 1011.21 1011.43 1011.62 1011.83 1012.05 1012.29 1012.53 1012.74 1012.90 1013.02 1013.11 1013.18 1013.28 1013.40 1013.56 1013.74 1013.91 1014.04 1014.11 1014.11 1014.04 1013.92 1013.78 1013.63 1013.50 1013.38 1013.28 1013.19 1013.11 1013.03 1012.97 1012.94 1012.98 1013.08
1008.02 1008.18 1008.50 1008.96 1009.49 1010.03 1010.50 1010.88 1011.16 1011.36 1011.52 1011.69 1011.89 1012.12 1012.37 1012.62 1012.83 1012.98 1013.08 1013.14 1013.19 1013.26 1013.38 1013.53 1013.72 1013.90 1014.03 1014.10 1014.10 1014.01 1013.86 1013.68 1013.50 1013.33 1013.18 1013.05 1012.94 1012.84 1012.75 1012.68 1012.66 1012.69 1012.78
1008.26 1008.50 1008.89 1009.40 1009.93 1010.43 1010.83 1011.11 1011.30 1011.43 1011.54 1011.70 1011.90 1012.16 1012.45 1012.72 1012.95 1013.10 1013.18 1013.22 1013.24 1013.28 1013.37 1013.51 1013.69 1013.86 1014.00 1014.07 1014.05 1013.95 1013.79 1013.58 1013.37 1013.17 1013.00 1012.86 1012.74 1012.64 1012.55 1012.49 1012.46 1012.47 1012.55
1008.48 1008.79 1009.24 1009.77 1010.28 1010.72 1011.04 1011.24 1011.34 1011.41 1011.50 1011.65 1011.89 1012.19 1012.52 1012.83 1013.07 1013.23 1013.30 1013.30 1013.29 1013.29 1013.35 1013.46 1013.61 1013.77 1013.90 1013.97 1013.95 1013.84 1013.66 1013.44 1013.21 1013.00 1012.83 1012.68 1012.57 1012.48 1012.41 1012.36 1012.33 1012.34 1012.39
1008.60 1008.97 1009.46 1009.99 1010.48 1010.86 1011.10 1011.23 1011.28 1011.32 1011.40 1011.58 1011.85 1012.20 1012.57 1012.91 1013.17 1013.32 1013.37 1013.35 1013.29 1013.26 1013.27 1013.35 1013.47 1013.61 1013.73 1013.78 1013.75 1013.64 1013.46 1013.23 1013.00 1012.79 1012.62 1012.49 1012.40 1012.33 1012.29 1012.25 1012.24 1012.24 1012.27
1008.59 1009.01 1009.51 1010.03 1010.49 1010.82 1011.02 1011.10 1011.13 1011.17 1011.27 1011.48 1011.79 1012.18 1012.58 1012.94 1013.20 1013.35 1013.37 1013.31 1013.23 1013.15 1013.13 1013.17 1013.26 1013.38 1013.47 1013.51 1013.47 1013.35 1013.17 1012.94 1012.71 1012.50 1012.34 1012.23 1012.16 1012.13 1012.12 1012.11 1012.12 1012.13 1012.15
1008.47 1008.91 1009.42 1009.92 1010.34 1010.64 1010.82 1010.90 1010.94 1011.00 1011.15 1011.39 1011.74 1012.14 1012.55 1012.90 1013.15 1013.27 1013.27 1013.19 1013.07 1012.98 1012.93 1012.94 1013.01 1013.10 1013.17 1013.19 1013.13 1013.00 1012.80 1012.57 1012.34 1012.13 1011.98 1011.88 1011.84 1011.83 1011.85 1011.87 1011.90 1011.92 1011.95
1008.33 1008.77 1009.25 1009.72 1010.11 1010.39 1010.57 1010.68 1010.76 1010.87 1011.06 1011.34 1011.70 1012.09 1012.48 1012.80 1013.01 1013.10 1013.07 1012.98 1012.86 1012.76 1012.70 1012.70 1012.75 1012.82 1012.86 1012.86 1012.78 1012.62 1012.41 1012.16 1011.92 1011.71 1011.55 1011.46 1011.41 1011.42 1011.45 1011.49 1011.54 1011.58 1011.62
1008.25 1008.65 1009.08 1009.50 1009.86 1010.14 1010.33 1010.48 1010.62 1010.80 1011.03 1011.33 1011.67 1012.04 1012.37 1012.63 1012.79 1012.85 1012.82 1012.73 1012.63 1012.54 1012.51 1012.51 1012.55 1012.60 1012.61 1012.57 1012.46 1012.27 1012.03 1011.76 1011.50 1011.27 1011.09 1010.97 1010.92 1010.91 1010.93 1010.98 1011.03 1011.09 1011.14
1008.31 1008.63 1008.98 1009.33 1009.65 1009.92 1010.15 1010.36 1010.56 1010.79 1011.06 1011.36 1011.67 1011.98 1012.24 1012.43 1012.54 1012.57 1012.54 1012.48 1012.42 1012.39 1012.39 1012.42 1012.46 1012.49 1012.47 1012.39 1012.23 1012.01 1011.73 1011.43 1011.13 1010.86 1010.64 1010.48 1010.39 1010.34 1010.33 1010.35 1010.39 1010.45 1010.51
1008.54 1008.75 1008.99 1009.26 1009.52 1009.78 1010.04 1010.30 1010.57 1010.85 1011.14 1011.43 1011.70 1011.93 1012.11 1012.23 1012.29 1012.31 1012.30 1012.30 1012.30 1012.34 1012.39 1012.45 1012.50 1012.50 1012.45 1012.32 1012.11 1011.84 1011.52 1011.18 1010.84 1010.53 1010.26 1010.04 1009.88 1009.77 1009.70 1009.67 1009.68 1009.71 1009.76
1008.92 1008.99 1009.10 1009.26 1009.47 1009.71 1009.99 1010.30 1010.62 1010.95 1011.26 1011.52 1011.74 1011.90 1012.01 1012.06 1012.09 1012.11 1012.14 1012.20 1012.28 1012.38 1012.49 1012.58 1012.63 1012.61 1012.52 1012.34 1012.08 1011.76 1011.40 1011.02 1010.63 1010.27 1009.94 1009.66 1009.42 1009.23 1009.09 1008.99 1008.94 1008.93 1008.96
1009.39 1009.31 1009.29 1009.34 1009.47 1009.69 1009.98 1010.33 1010.70 1011.07 1011.39 1011.64 1011.81 1011.91 1011.95 1011.96 1011.96 1011.99 1012.06 1012.18 1012.34 1012.50 1012.66 1012.77 1012.81 1012.76 1012.61 1012.38 1012.08 1011.71 1011.32 1010.90 1010.48 1010.07 1009.69 1009.33 1009.01 1008.74 1008.51 1008.33 1008.22 1008.15 1008.15
1009.89 1009.67 1009.51 1009.46 1009.52 1009.71 1010.01 1010.39 1010.80 1011.20 1011.53 1011.76 1011.90 1011.95 1011.94 1011.92 1011.91 1011.95 1012.06 1012.22 1012.43 1012.64 1012.81 1012.92 1012.94 1012.85 1012.65 1012.37 1012.02 1011.63 1011.20 1010.76 1010.31 1009.87 1009.43 1009.01 1008.61 1008.26 1007.95 1007.69 1007.51 1007.39 1007.34
1010.34 1010.01 1009.75 1009.61 1009.61 1009.78 1010.08 1010.48 1010.92 1011.34 1011.68 1011.91 1012.02 1012.03 1011.99 1011.93 1011.91 1011.95 1012.07 1012.26 1012.49 1012.70 1012.87 1012.95 1012.93 1012.79 1012.55 1012.22 1011.83 1011.41 1010.97 1010.51 1010.04 1009.57 1009.10 1008.62 1008.16 1007.73 1007.35 1007.03 1006.79 1006.62 1006.52
1010.75 1010.34 1010.01 1009.80 1009.76 1009.91 1010.20 1010.62 1011.07 1011.50 1011.84 1012.06 1012.15 1012.13 1012.05 1011.97 1011.92 1011.95 1012.06 1012.23 1012.44 1012.62 1012.75 1012.78 1012.70 1012.51 1012.22 1011.86 1011.44 1011.01 1010.55 1010.09 1009.62 1009.12 1008.61 1008.10 1007.59 1007.10 1006.66 1006.29 1006.00 1005.80 1005.67
1011.10 1010.66 1010.30 1010.06 1009.99 1010.12 1010.41 1010.82 1011.27 1011.69 1012.02 1012.22 1012.28 1012.22 1012.11 1011.98 1011.90 1011.88 1011.95 1012.07 1012.22 1012.34 1012.40 1012.37 1012.22 1011.97 1011.64 1011.25 1010.82 1010.38 1009.93 1009.47 1008.99 1008.48 1007.94 1007.39 1006.83 1006.30 1005.83 1005.42 1005.11 1004.88 1004.74
1011.43 1011.01 1010.64 1010.39 1010.32 1010.42 1010.70 1011.08 1011.51 1011.90 1012.19 1012.35 1012.37 1012.27 1012.11 1011.93 1011.79 1011.71 1011.71 1011.75 1011.82 1011.86 1011.83 1011.72 1011.51 1011.21 1010.84 1010.44 1010.01 1009.57 1009.13 1008.67 1008.18 1007.65 1007.09 1006.50 1005.90 1005.34 1004.83 1004.40 1004.07 1003.84 1003.70
1011.77 1011.38 1011.04 1010.81 1010.72 1010.81 1011.04 1011.38 1011.75 1012.09 1012.32 1012.42 1012.38 1012.22 1012.01 1011.77 1011.57 1011.42 1011.34 1011.30 1011.26 1011.21 1011.10 1010.91 1010.64 1010.30 1009.91 1009.50 1009.08 1008.66 1008.22 1007.76 1007.26 1006.71 1006.12 1005.49 1004.85 1004.25 1003.71 1003.26 1002.92 1002.69 1002.55
1012.12 1011.78 1011.47 1011.25 1011.16 1011.22 1011.40 1011.67 1011.96 1012.21 1012.36 1012.38 1012.27 1012.06 1011.79 1011.50 1011.24 1011.03 1010.87 1010.75 1010.64 1010.49 1010.30 1010.05 1009.73 1009.37 1008.97 1008.56 1008.15 1007.74 1007.32 1006.86 1006.34 1005.77 1005.13 1004.46 1003.78 1003.13 1002.55 1002.07 1001.71 1001.47 1001.33
Thickness
5800 5802 5801 5799 5798 5797 5796 5794 5792 5790 5788 5786 5783 5781 5779 5777 5775 5773 5770 5768 5765 5763 5761 5760 5758 5756 5755 5753 5752 5751 5749 5748 5746 5746 5745 5744 5743 5742 5743 5742 5742 5741 5740
5804 5802 5800 5799 5797 5795 5793 5791 5790 5788 5785 5783 5781 5779 5777 5774 5772 5770 5767 5765 5763 5761 5759 5757 5756 5754 5752 5751 5750 5748 5747 5745 5744 5743 5742 5742 5741 5740 5740 5739 5739 5739 5738
5805 5801 5799 5797 5795 5793 5791 5789 5787 5785 5783 5781 5779 5777 5775 5772 5770 5768 5765 5762 5760 5758 5757 5755 5753 5751 5750 5749 5747 5746 5745 5743 5742 5741 5740 5739 5739 5738 5737 5737 5736 5736 5736
5804 5801 5798 5796 5794 5792 5790 5787 5785 5783 5781 5779 5777 5775 5772 5770 5767 5765 5763 5760 5758 5756 5755 5753 5751 5749 5748 5746 5745 5744 5742 5741 5740 5739 5738 5737 5736 5736 5736 5735 5734 5733 5733
5801 5799 5797 5794 5792 5790 5788 5786 5783 5781 5779 5777 5775 5773 5770 5768 5765 5762 5760 5758 5756 5754 5752 5751 5749 5747 5746 5744 5743 5741 5740 5739 5738 5737 5736 5735 5735 5734 5734 5733 5732 5731 5730
5799 5797 5795 5793 5790 5788 5786 5783 5781 5779 5777 5775 5772 5770 5768 5765 5763 5760 5758 5756 5754 5752 5750 5748 5747 5745 5743 5742 5740 5739 5738 5737 5736 5735 5734 5734 5733 5733 5732 5731 5730 5729 5728
5795 5794 5792 5790 5788 5786 5783 5781 5779 5777 5774 5772 5770 5767 5765 5763 5760 5758 5755 5753 5752 5750 5748 5746 5745 5743 5741 5740 5738 5737 5736 5735 5734 5733 5732 5732 5731 5731 5730 5729 5728 5726 5725
5793 5790 5788 5786 5784 5782 5780 5778 5776 5773 5771 5769 5767 5764 5762 5760 5757 5755 5753 5751 5749 5747 5745 5744 5742 5741 5739 5737 5736 5734 5733 5732 5732 5731 5730 5730 5730 5729 5728 5727 5725 5724 5723
5790 5787 5785 5782 5780 5778 5775 5774 5772 5770 5768 5766 5763 5761 5759 5757 5754 5752 5750 5748 5746 5745 5743 5741 5739 5738 5736 5735 5734 5732 5731 5730 5729 5728 5727 5727 5727 5727 5726 5724 5723 5722 5721
5784 5783 5781 5779 5777 5774 5772 5770 5768 5766 5765 5763 5760 5758 5756 5753 5751 5749 5747 5745 5744 5742 5740 5739 5737 5735 5734 5733 5731 5730 5728 5727 5726 5724 5724 5723 5724 5724 5723 5722 5720 5719 5718
5777 5776 5776 5775 5773 5771 5768 5766 5764 5762 5761 5758 5756 5754 5751 5749 5747 5745 5744 5742 5741 5740 5739 5737 5735 5733 5731 5730 5728 5727 5725 5724 5722 5721 5720 5720 5720 5720 5719 5719 5718 5716 5715
5769 5770 5771 5770 5769 5767 5765 5763 5760 5757 5756 5754 5752 5750 5747 5745 5743 5742 5740 5739 5738 5737 5735 5734 5732 5730 5728 5726 5725 5723 5722 5721 5718 5717 5716 5716 5716 5716 5716 5715 5715 5713 5712
5767 5766 5765 5765 5764 5763 5761 5759 5756 5754 5752 5750 5748 5745 5743 5741 5739 5738 5736 5735 5734 5733 5731 5730 5728 5727 5725 5723 5721 5719 5718 5717 5715 5714 5713 5713 5713 5712 5712 5712 5711 5710 5709
5763 5762 5761 5760 5759 5758 5757 5754 5752 5751 5749 5746 5744 5741 5738 5736 5734 5733 5732 5731 5730 5728 5727 5725 5724 5722 5721 5719 5717 5715 5714 5713 5712 5711 5710 5710 5709 5709 5709 5709 5708 5707 5706
5759 5759 5757 5757 5754 5753 5751 5750 5748 5746 5744 5742 5740 5737 5734 5731 5730 5729 5728 5727 5726 5724 5722 5720 5719 5717 5716 5715 5714 5712 5711 5710 5708 5708 5707 5706 5706 5706 5706 5705 5705 5703 5702
5755 5754 5752 5751 5750 5748 5745 5744 5742 5740 5739 5737 5735 5733 5730 5728 5726 5725 5723 5723 5721 5720 5718 5716 5713 5712 5710 5710 5709 5708 5707 5706 5705 5704 5703 5702 5702 5701 5701 5701 5701 5700 5698
5752 5751 5748 5747 5746 5743 5740 5739 5738 5736 5736 5733 5731 5729 5727 5725 5722 5720 5718 5717 5716 5715 5713 5710 5708 5706 5705 5704 5703 5703 5702 5702 5701 5700 5699 5697 5697 5697 5697 5697 5696 5695 5694
5748 5745 5743 5742 5740 5738 5736 5735 5733 5731 5730 5728 5726 5724 5722 5720 5718 5715 5713 5711 5710 5709 5707 5704 5702 5699 5697 5696 5696 5697 5697 5696 5696 5695 5695 5694 5693 5693 5693 5693 5692 5691 5690
5742 5739 5737 5735 5734 5733 5731 5730 5728 5726 5724 5723 5721 5719 5718 5715 5713 5711 5708 5707 5706 5703 5701 5698 5696 5693 5691 5689 5689 5691 5691 5690 5690 5690 5690 5690 5690 5689 5688 5688 5688 5687 5686
5737 5734 5731 5730 5728 5728 5726 5724 5722 5720 5718 5717 5715 5713 5712 5710 5708 5706 5703 5702 5700 5697 5694 5691 5689 5687 5685 5684 5684 5684 5685 5685 5685 5685 5685 5685 5685 5684 5684 5683 5683 5683 5682
5729 5727 5725 5723 5721 5721 5718 5715 5712 5710 5710 5709 5709 5708 5707 5705 5703 5700 5698 5696 5694 5692 5689 5686 5683 5680 5679 5677 5674 5674 5677 5679 5680 5680 5679 5679 5679 5679 5679 5679 5678 5678 5678
5723 5721 5719 5716 5715 5714 5712 5709 5706 5704 5703 5702 5702 5702 5701 5699 5697 5696 5693 5690 5688 5686 5683 5680 5677 5674 5672 5671 5666 5663 5662 5665 5670 5674 5672 5672 5673 5674 5674 5674 5674 5674 5673
5718 5716 5715 5711 5709 5708 5706 5703 5700 5697 5696 5695 5694 5693 5694 5693 5691 5690 5687 5685 5683 5680 5676 5674 5671 5668 5664 5664 5662 5657 5653 5653 5657 5663 5665 5666 5667 5667 5668 5669 5670 5670 5670
5713 5712 5708 5705 5703 5701 5699 5695 5691 5688 5685 5686 5687 5686 5687 5686 5684 5683 5681 5679 5676 5674 5671 5668 5667 5664 5660 5657 5656 5654 5652 5652 5649 5650 5655 5658 5660 5661 5662 5663 5664 5665 5665
5708 5705 5702 5699 5697 5695 5693 5690 5686 5683 5681 5681 5681 5680 5679 5678 5677 5675 5674 5673 5670 5668 5666 5664 5662 5659 5656 5653 5651 5649 5648 5646 5645 5641 5643 5648 5651 5654 5656 5657 5658 5659 5660
5702 5699 5696 5693 5691 5689 5687 5684 5681 5678 5676 5674 5674 5672 5671 5671 5670 5669 5668 5667 5665 5663 5661 5660 5658 5655 5652 5650 5647 5645 5642 5640 5638 5636 5635 5638 5640 5646 5650 5651 5652 5652 5653